Regional Weather Roundup
Issued by NWS

Home | Current Version | Previous Version | Graphics & Text | Print | Product List | Glossary On
Versions: 1 2 3 4 5 6 7 8 9 10 11 12 13 14 15 16 17 18 19 20 21 22 23 24 25 26 27 28 29 30 31 32 33 34 35 36 37 38 39 40 41 42 43 44 45 46 47 48 49 50
000
ASUS43 KDMX 300507
RWRIA

WEATHER ROUNDUP FOR IOWA
NATIONAL WEATHER SERVICE DES MOINES IA
1200 AM CDT TUE JUN 30 2015

NOTE: "FAIR" INDICATES FEW OR NO CLOUDS BELOW 12,000 FEET WITH NO
SIGNIFICANT WEATHER AND/OR OBSTRUCTIONS TO VISIBILITY.

* - THESE STATIONS ARE NOT NWS STATIONS...THUS NOT UNDER NWS
QUALITY CONTROL.  THEY ALSO DO NOT REPORT WEATHER SUCH
AS PRECIPITATION OR FOG.

IAZ001>003-012>014-020>022-031>034-043>046-300600-
   NORTHWEST IOWA

CITY           SKY/WX    TMP DP  RH WIND       PRES   REMARKS
CARROLL *      CLOUDY    66  64  94 W8        29.89F
CHEROKEE *     MOCLDY    66  64  94 CALM      29.90S
DENISON *      CLOUDY    64  63  94 CALM      29.89F
LE MARS *        N/A     64  63  94 CALM      29.91F
ORANGE CITY *  CLEAR     66  61  82 NW3       29.91S
SHELDON *      CLOUDY    64  64 100 NW5       29.90S
SIOUX CITY     PTCLDY    70  62  76 CALM      29.91S
SPENCER        CLOUDY    63  60  90 NW7       29.90S FOG
STORM LAKE *   CLEAR     68  63  83 W9        29.91S
$$

IAZ055>058-069>071-079>083-090>094-300600-
   SOUTHWEST IOWA

CITY           SKY/WX    TMP DP  RH WIND       PRES   REMARKS
ATLANTIC *     CLOUDY    66  64  94 S5        29.91F
AUDUBON *      CLEAR     66  63  88 CALM      29.92S
CLARINDA *     CLEAR     66  66 100 S3        29.93S
COUNCIL BLFS * MOCLDY    70  64  83 W3        29.93S
CRESTON *      CLEAR     70  61  73 W5        29.91F
HARLAN  *      CLEAR     64  64 100 CALM      29.95S
LAMONI           N/A     70  64  81 W5        29.91S
RED OAK *        N/A     68  66  94 CALM      29.92S
SHENANDOAH *     N/A     68  64  88 CALM      29.92F
$$

IAZ047>049-059>061-072>074-084-300600-
   CENTRAL IOWA

CITY           SKY/WX    TMP DP  RH WIND       PRES   REMARKS
AMES           CLEAR     67  64  90 W8        29.86F
ANKENY *       CLEAR     68  64  88 W6        29.87S
CHARITON *     CLOUDY    68  64  88 W7        29.88F
DES MOINES     CLOUDY    71  63  75 W3        29.87F
GRINNELL*      CLEAR     68  64  88 W5        29.87S
KNOXVILLE *    CLEAR     68  64  88 W6        29.86F
MARSHALLTOWN   CLEAR     67  64  90 CALM      29.85S
PELLA *        CLEAR     70  68  92 W5        29.87F
PERRY *          N/A     68  64  88 W6        29.88F
$$

IAZ004>006-015-016-023>025-035-036-300600-
   NORTH CENTRAL IOWA

CITY           SKY/WX    TMP DP  RH WIND       PRES   REMARKS
ALGONA *       CLEAR     68  63  83 W8        29.87S
CLARION *      CLEAR     66  63  88 W6        29.86S
ESTHERVILLE    CLEAR     65  62  90 NW8       29.88S
FORT DODGE *   CLEAR     66  61  82 CALM      29.88S
MASON CITY     CLEAR     63  58  83 S6        29.87F
FOREST CITY *  CLEAR     63  63 100 NW3       29.86R
IOWA FALLS *     N/A     68  63  83 NW6       29.88R
$$

IAZ007>011-017>019-026>030-037>042-050>054-066-300600-
   NORTHEAST IOWA

CITY           SKY/WX    TMP DP  RH WIND       PRES   REMARKS
CEDAR RAPIDS   CLOUDY    63  63 100 E6        29.84F
CHARLES CITY * CLEAR     61  61 100 SW5       29.85S
CLINTON *      CLOUDY    64  61  88 W8        29.84S
DECORAH *        N/A    N/A N/A N/A MISG        N/A
DUBUQUE        CLOUDY    62  60  93 S9        29.81F
MONTICELLO *   PTCLDY    63 N/A N/A S5        29.81F
OELWEIN *        N/A     63  61  94 SW3       29.85S
WATERLOO       PTCLDY    64  60  87 S5        29.84F
$$

IAZ064-065-067-068-078-300600-
   EAST CENTRAL IOWA

CITY           SKY/WX    TMP DP  RH WIND       PRES   REMARKS
DAVENPORT      CLOUDY    65  63  93 W6        29.85R
IOWA CITY      MOCLDY    66  64  93 NE12      29.87R
MT. PLEASANT * CLEAR     70  64  83 SW6       29.85F
MUSCATINE *    MOCLDY    70  66  88 N9        29.85S
QUAD CITIES    CLOUDY    67  64  90 CALM      29.83F
$$

IAZ062-063-075>077-085>089-095>099-300600-
   SOUTHEAST IOWA

CITY           SKY/WX    TMP DP  RH WIND       PRES   REMARKS
BURLINGTON     CLEAR     68  66  93 W3        29.84F
FAIRFIELD *    CLEAR     68  64  88 W5        29.86R
FORT MADISON * CLEAR     70  66  88 CALM      29.86S
KEOKUK *       CLEAR     68  66  94 W6        29.85F
OSKALOOSA *      N/A     68  64  88 CALM      29.86F
CENTERVILLE *  CLEAR     68  64  88 W7        29.90S
OTTUMWA        CLEAR     68  66  93 W7        29.84F
WASHINGTON *   CLEAR     70  66  88 NW7G14    29.86S
$$

ABBREVIATIONS USED IN REMARKS
   TC - TEMPERATURES IN CELSIUS
  WCI - WIND CHILL INDEX
   HX - HEAT INDEX
  VSB - VISIBILITY
$$




USA.gov is the U.S. government's official web portal to all federal, state and local government web resources and services.